COSMOS 249 DEB, 3583

Orbit data source: Space-Track

COSMOS 249 DEB, 3583 is space debris in LEO originally from a launch on Sun, 20 Oct 1968 UTC launched from the Tyuratam Missile And Space Complex (TTMTR). Debris objects in space refer to the collection of defunct objects orbiting the Earth. Examples of debris include non-operational satellites, rocket bodies, and fragments generated from explosions, collisions, or faulty payload assembly.

Loading next visibility...
Identifier
3583, 1968-091R
Orbit
LEO
Country
Flag of CISCIS
Related business
Manufacturer
Unknown
Mission
Spacecraft
Bus & Motor
Unknown
Mass
Unknown
Launch date (UTC)
1968-10-20 (57 years ago)
Launch vehicle
Unknown
Launch site
Tyuratam Missile And Space Complex (TTMTR)
Object type
Payload
Rocket body
Debris
Shape & HBR
Unknown shape, 0.1 m
Radar Cross Section
Small (<0.1 m²)

Expand to show TLE details & history
Last TLE update: 11 hours ago

TLE from 11 hours ago
0 COSMOS 249 DEB
1  3583U 68091R   26036.24135204  .00000238  00000-0  43831-3 0  9996
2  3583  62.0794 124.1904 0706914 112.4994 255.2370 12.85756173667252
Epoch: 2026-02-05T05:47Z
TLE epoch observation values (Epoch: 2026-02-05T05:47:32.816Z)
Latitude
0.00003°
Longitude
-98.09272°
Altitude
1,493.608 km
Speed
7.037 km/s
True Right ascension
08h 16m 45s
True Declination
0° 00' 00"
Sunlit
Object was in full shadow at epoch
Visualization orbit readout
Latitude
Unknown
Longitude
Unknown
Altitude
Unknown
Speed
Unknown
Apparent Right ascension
Unknown
Apparent Declination
Unknown
Sunlit
N/A
Visualization observer readout
Local Sidereal Time
18:28:33
Azimuth
Unknown
Elevation
Unknown
Doppler factor
Unknown
Orbital elements
Apogee altitude
1,861.442 km
Perigee altitude
773.421 km
Semi-major axis
7,695.568 km
Eccentricity
0.07069
Inclination
62.0794°
RAAN
124.1904°
Arg. of periapsis
112.4994°
True anomaly
247.59904°
Mean anomaly
255.237°
Eccentric anomaly
251.39827°
Mean motion
3.21501 °/min
Orbital period
111.97 mins
BSTAR
0.00043831
Loading maneuver chart data...
Computing Atmospheric mass density...

Documentation

Showing up to 5 results
|